星链-5456 (STARLINK-5456 )

导读 | 星芒AI

STARLINK-5456 是 SpaceX Starlink 卫星互联网项目中的一颗低轨通信卫星。它属于 Starlink 群体部署的数千颗卫星之一,旨在为全球提供高速、低延迟的互联网服务。该卫星采用可重复使用设计,配备先进通信设备,支持 Ku 和 Ka 波段传输。自发射以来,STARLINK-5456 有效提升了特定区域的网络覆盖,尤其在偏远地区发挥重要作用。其运行状态由 SpaceX 地面控制系统实时监控与管理。

基本信息
目录编号:
55667
目录名称:
STARLINK-5456
国际标识:
2023-021AR
轨道中心:
EARTH
卫星名称:
星链-5456
卫星全名:
星链-5456 (STARLINK-5456 )
卫星状态:
在轨 (已飞行991 天)
发射日期:
2023-02-17 UTC
国别 :
美国 (US)
星等 :
--
轨道信息
数据来源 国际轨道数据
星历时间: 2025-11-04T19:44:54+0800
5小时前
查看轨道信息
半长轴: 6950.177km
偏心率: 0.0002979
轨道倾角: 69.998°
近地点辐角 270.025°
升交点赤经 120.016°
平近点角 90.057°
近地点: 569.971km
远地点: 574.113km
周期: 96.107分钟
每日圈数: 14.983353
详细信息
固有亮度:
5
最大亮度:
2.5
卫星平台:
Starlink v1.5
覆盖范围:
全球
运营商:
太空探索技术公司
运营商所在国:
美国
制造商(研发单位):
太空探索技术公司
制造商所在国:
美国
使用方式:
暂无
卫星简介
星链(Starlink)计划是由太空探索技术公司(SpaceX)提出的一个巨型低轨卫星互联网星座项目,计划在2019年至2024年间在太空搭建由约1.2万颗卫星组成的“星链”网络,其中1584颗将部署在地球上空550千米处的近地轨道,并从2020年开始工作。该卫星仍在工作。
2D轨道图
3D轨道图
轨道高度分析图
轨道倾角分析图
轨道综合分析图
查看轨道综合分析图